Location: Waldport
(44.4270°N, 124.0680°W)
Time: 11:31:13
(UTC-07:00)

Lacrosse 5 - Pass Details

Date: 23 June 2018
Orbit: 714 x 724 km, 57.0° (Epoch: 10 July)

Event Time Altitude Azimuth Distance (km) Brightness Sun altitude
Rises 22:28:17 0° 250° (WSW) 3,118 5.4 -11.8°
Reaches altitude 10° 22:30:46 10° 257° (WSW) 2,199 4.7 -12.1°
Maximum altitude 22:35:35 42° 329° (NNW) 1,014 3.3 -12.6°
Drops below altitude 10° 22:40:24 10° 40° (NE) 2,202 4.5 -13.1°
Sets 22:42:54 0° 48° (NE) 3,123 5.2 -13.4°
